Vertical_Velocity
1 -0 0 3 2 3 -5 9 11 -0 6 1 3 7 7 0 10 -3 -1 3 1 8 -6 -0 1 -1 -2 -0 2 3 5 -1 -5 0 0 -3 -1 -0 2 -4 -1 1 -2
0 -2 0 2 2 3 4 -7 8 10 9 4 5 -3 8 6 10 3 9 1 0 1 -1 -3 5 4 6 2 2 2 -3 -4 5 -5 -4 -1 2 2 1 -3 0 -2 2
-3 -1 2 3 9 -3 2 9 8 8 4 3 4 5 3 3 3 2 0 1 0 4 1 0 9 7 7 3 -4 0 -4 -4 -0 -0 -1 4 3 2 -2 -2 -0 -1 -7
3 -6 0 0 -2 1 5 5 6 6 4 -1 9 4 6 3 7 -1 -0 -2 5 3 3 6 6 2 -3 -1 2 1 -3 0 -2 1 -4 2 1 2 1 1 2 -1 -0
0 0 2 -3 7 3 -2 4 6 5 1 -2 11 4 4 7 -1 -2 8 4 3 10 2 6 -3 -1 1 -1 2 -0 1 1 0 2 0 1 0 -1 -3 -6 -3 1 -6
3 1 -2 0 5 5 7 2 6 2 1 -0 4 11 -5 -3 7 2 8 6 -1 -10 2 5 3 -2 -1 -1 -1 3 -2 0 -1 2 1 0 -3 -2 -4 -3 -1 -2 7
1 3 -2 2 4 14 12 8 5 0 0 3 5 -6 7 4 9 8 10 -1 -9 0 0 1 2 -0 1 -3 -2 -2 0 -1 1 -4 3 0 -6 -6 4 -8 -4 -5 -6
-2 0 3 0 0 -1 10 7 0 -3 -3 -1 2 -1 4 2 2 7 5 -7 -4 -3 -2 -1 1 1 1 -0 2 -0 3 1 -0 -6 6 -4 -3 -5 -2 -3 1 2 1
-0 2 1 -3 5 2 5 3 1 -2 -3 2 4 4 4 10 5 5 6 -15 -3 3 4 3 1 1 1 -1 0 -1 0 -1 -3 3 -3 -6 -4 -5 -4 -0 -3 -0 2
-0 -4 4 2 6 4 2 -2 2 5 3 2 5 7 3 -1 1 -0 -8 -2 -1 1 3 -1 2 1 -1 1 1 -3 0 -4 1 -7 -5 -1 -0 -4 -1 -2 -2 -1 -7
-4 7 -2 -1 -5 0 3 3 4 -1 3 4 5 5 2 -2 -4 -7 4 6 2 3 3 2 -1 -2 -1 -1 -4 -1 -1 2 -3 3 -2 0 -3 -1 0 -5 -4 -2 -6
-3 2 1 2 4 4 2 4 6 4 3 2 3 1 -4 -3 1 7 3 2 1 1 -2 -2 -2 -2 -5 2 1 1 -1 0 2 -2 -4 -4 -2 0 -3 1 -0 -3 -5
3 3 5 2 -1 -3 -1 4 0 1 4 1 -2 -3 0 1 4 3 1 -1 -2 -3 -3 -4 -9 0 6 2 -1 -1 0 -1 -8 -4 1 1 -1 -1 1 -2 -5 1 -4
-0 -1 -2 0 -1 0 3 2 7 5 3 4 -0 -2 2 1 0 1 -0 -2 -3 -3 1 3 2 1 -1 -3 -3 -4 -6 -2 0 2 0 -3 -3 -3 -3 -2 2 0 4
-3 -1 -1 2 2 1 6 13 9 6 1 1 3 3 1 2 1 -1 0 0 -2 -1 -3 -2 -0 -1 -2 -5 -4 -1 1 0 -2 -4 -3 -2 -3 -1 -0 -2 -3 -1 -6
2 2 0 0 1 4 6 1 -4 -2 4 3 1 1 1 -1 -2 -1 -2 -1 1 1 1 0 -3 -4 -3 0 1 -1 -2 -3 -3 -2 -2 -1 -0 -2 -2 -1 -3 -3 0
0 1 2 2 2 2 1 2 5 1 -2 -1 -1 -0 -1 1 1 1 2 -0 -2 -1 -2 -3 -3 -2 -1 -0 -1 -2 -2 -1 1 -0 -2 -3 -1 -2 -1 -2 -2 -1 2
0 -1 2 4 2 2 0 2 0 -0 2 3 1 1 1 2 2 -1 -2 -1 -3 -3 -2 -1 -1 0 0 -0 -1 0 -1 -2 -2 -3 -3 -2 -2 -2 -1 -2 -2 -2 1
0 1 1 1 1 0 -1 -1 0 -1 0 1 1 2 1 -1 -2 -0 -1 -3 -2 -1 -2 -1 1 1 0 -0 -1 -2 -2 -3 -1 -1 -0 -2 -2 -0 -1 -0 -2 -5 -3
2 0 1 2 0 -0 0 -2 -2 1 2 1 0 -1 -1 -2 -2 -2 -1 -1 -0 -0 0 1 -1 -1 -0 -1 -2 -2 -2 -2 -2 -2 -2 -0 -0 -1 -2 -2 -2 -2 -0
-1 -0 -0 -1 -2 -1 1 1 0 -1 -1 -2 -2 -2 -2 -1 0 -0 -1 0 -1 0 -0 -0 -1 -1 -1 -2 -2 -4 -2 -1 -0 0 -0 0 0 -1 -3 -2 -1 -2 -1
-0 2 2 3 2 1 1 0 0 -1 -1 -1 -1 -1 -0 -1 -0 -1 -0 1 -0 -2 -2 -2 -1 -2 -2 -2 -2 -1 -1 -0 -1 -1 -0 -1 -1 1 -2 -2 -1 -2 -1
1 1 3 1 1 -1 -1 0 1 1 0 -1 -1 0 1 1 1 0 -0 -1 -2 -2 -1 -2 -1 -1 -1 -1 -2 -1 -0 -1 -0 -0 -0 -2 -1 0 -2 -1 -1 1 1
2 2 1 3 3 4 1 1 0 -1 -0 0 1 1 1 2 1 -1 -1 -2 -2 -2 -1 -0 -2 -2 -1 -1 -1 -1 -0 -1 -2 -1 -1 -1 0 1 -0 -1 -1 -0 -1
7 4 -0 -0 4 0 -1 0 3 2 2 2 1 1 -0 -1 -1 -0 -0 -1 -2 -2 -2 -2 -2 -0 -1 -2 -1 -0 -1 -0 -1 1 -1 -1 0 0 -1 -0 1 -1 -2
4 6 4 2 -1 1 4 2 2 2 1 1 1 1 0 -0 -1 -0 -1 -1 -0 -0 0 -0 -0 0 0 -0 -0 -1 -1 -1 0 1 1 -1 1 0 -1 0 1 -1 -2
Height
2998 2999 3000 3002 3004 3007 3011 3013 3015 3020 3022 3028 3038 3048 3054 3061 3066 3071 3075 3078 3082 3084 3088 3091 3092 3094 3096 3096 3095 3095 3093 3092 3091 3091 3089 3085 3080 3075 3070 3064 3060 3056 3051
2995 2995 2996 2998 3001 3003 3002 3004 3008 3013 3020 3025 3034 3044 3053 3059 3064 3068 3071 3076 3080 3084 3085 3088 3089 3089 3088 3088 3086 3087 3088 3086 3086 3086 3082 3077 3071 3067 3062 3058 3053 3049 3043
2992 2993 2994 2996 2998 3000 2999 3002 3006 3011 3016 3024 3033 3041 3049 3056 3061 3064 3069 3073 3077 3079 3081 3081 3082 3082 3082 3082 3082 3083 3083 3083 3081 3078 3075 3070 3064 3060 3055 3052 3046 3040 3034
2991 2991 2993 2994 2995 2997 2997 3000 3004 3011 3018 3025 3032 3040 3047 3054 3058 3062 3066 3068 3071 3073 3074 3075 3075 3076 3078 3078 3078 3079 3078 3075 3072 3068 3066 3061 3057 3052 3047 3044 3040 3032 3029
2989 2990 2991 2992 2992 2992 2994 3000 3005 3010 3018 3027 3033 3039 3045 3050 3054 3057 3060 3063 3065 3067 3069 3072 3073 3074 3075 3074 3076 3073 3071 3068 3064 3061 3058 3054 3049 3044 3038 3034 3032 3029 3024
2989 2989 2991 2992 2989 2992 2996 3001 3008 3014 3020 3026 3035 3040 3045 3048 3050 3053 3056 3059 3061 3064 3069 3070 3071 3072 3072 3071 3069 3067 3065 3061 3056 3054 3050 3045 3041 3037 3032 3029 3024 3022 3021
2988 2988 2991 2992 2991 2993 2998 3003 3009 3015 3022 3028 3033 3038 3041 3045 3048 3050 3053 3055 3059 3063 3067 3068 3068 3068 3069 3067 3065 3061 3058 3055 3050 3047 3043 3038 3034 3030 3027 3023 3018 3015 3011
2988 2989 2990 2993 2994 2994 2998 3005 3010 3016 3022 3027 3032 3036 3040 3043 3045 3047 3049 3052 3058 3062 3065 3066 3066 3065 3063 3062 3058 3055 3052 3049 3044 3041 3035 3032 3027 3024 3021 3017 3013 3009 3006
2987 2988 2990 2992 2993 2998 3001 3004 3009 3016 3021 3026 3030 3034 3038 3041 3042 3046 3047 3053 3059 3061 3063 3063 3062 3061 3059 3056 3053 3049 3046 3042 3038 3035 3030 3026 3022 3017 3014 3012 3008 3002 2999
2986 2990 2991 2992 2995 2998 3002 3005 3009 3014 3021 3025 3029 3034 3036 3039 3042 3045 3051 3056 3058 3059 3059 3059 3058 3056 3053 3049 3046 3043 3040 3036 3033 3028 3025 3021 3017 3013 3009 3004 3001 2997 2991
2985 2988 2991 2994 2995 2998 3000 3005 3009 3014 3020 3024 3028 3031 3034 3038 3043 3048 3052 3054 3055 3056 3056 3055 3053 3051 3048 3043 3040 3038 3035 3032 3028 3024 3019 3016 3012 3009 3004 3001 2996 2990 2986
2984 2988 2991 2993 2996 2999 3001 3005 3010 3015 3019 3024 3027 3031 3033 3039 3044 3047 3049 3052 3053 3054 3053 3050 3048 3046 3041 3038 3036 3033 3031 3027 3023 3019 3015 3012 3009 3004 3000 2995 2990 2986 2981
2985 2987 2990 2993 2997 2999 3002 3007 3011 3015 3019 3022 3026 3030 3035 3040 3044 3046 3048 3049 3050 3050 3048 3047 3043 3040 3037 3034 3031 3029 3026 3022 3018 3014 3011 3008 3002 2998 2994 2991 2987 2983 2978
2987 2988 2990 2994 2997 3000 3005 3009 3013 3016 3019 3023 3028 3033 3037 3039 3042 3044 3046 3046 3046 3044 3043 3040 3038 3035 3033 3030 3028 3025 3020 3016 3014 3010 3005 3001 2998 2994 2990 2987 2984 2979 2975
2990 2991 2993 2996 2999 3002 3006 3011 3015 3017 3021 3025 3029 3032 3035 3037 3039 3041 3042 3042 3041 3041 3039 3037 3033 3030 3028 3026 3022 3019 3015 3012 3008 3004 3001 2998 2994 2991 2987 2982 2978 2974 2969
2994 2996 2997 3000 3002 3006 3009 3012 3014 3018 3022 3025 3028 3031 3034 3036 3037 3038 3039 3039 3038 3036 3033 3031 3029 3026 3024 3021 3017 3014 3010 3007 3004 3000 2997 2993 2990 2986 2982 2978 2974 2969 2964
2994 2996 2999 3001 3004 3007 3010 3014 3018 3019 3021 3024 3027 3029 3032 3033 3034 3035 3035 3034 3033 3031 3029 3026 3024 3021 3018 3015 3012 3009 3006 3003 3000 2996 2992 2989 2986 2981 2978 2974 2970 2966 2961
2993 2996 2999 3002 3005 3008 3010 3013 3015 3018 3021 3023 3025 3027 3028 3030 3031 3031 3030 3029 3028 3027 3024 3021 3018 3016 3013 3011 3008 3005 3002 2998 2995 2992 2988 2985 2981 2978 2973 2970 2966 2962 2957
2992 2995 2998 3000 3003 3006 3008 3011 3014 3017 3019 3021 3023 3025 3026 3027 3027 3027 3027 3026 3024 3021 3018 3015 3013 3010 3008 3005 3003 3000 2997 2994 2990 2987 2984 2980 2976 2973 2970 2966 2962 2958 2954
2990 2992 2995 2998 3001 3004 3007 3009 3012 3014 3017 3019 3021 3022 3023 3023 3023 3023 3022 3020 3018 3016 3013 3009 3007 3005 3003 3001 2998 2995 2991 2988 2985 2982 2979 2975 2972 2969 2966 2962 2959 2956 2952
2986 2989 2992 2995 2998 3001 3004 3007 3010 3012 3014 3015 3017 3018 3019 3019 3019 3018 3017 3015 3012 3009 3006 3004 3002 3000 2998 2995 2992 2989 2986 2983 2980 2977 2974 2971 2968 2965 2962 2959 2956 2953 2950
2982 2985 2989 2993 2995 2998 3001 3004 3006 3008 3010 3012 3013 3014 3014 3015 3014 3013 3011 3009 3006 3003 3001 2998 2996 2994 2992 2989 2986 2983 2980 2977 2974 2972 2969 2966 2964 2961 2959 2957 2954 2951 2948
2978 2982 2985 2988 2991 2994 2997 2999 3002 3004 3006 3007 3008 3009 3010 3009 3009 3007 3005 3002 3000 2997 2995 2992 2990 2988 2986 2983 2980 2976 2974 2971 2969 2967 2964 2962 2960 2958 2956 2954 2952 2949 2946
2974 2977 2980 2984 2987 2990 2992 2995 2997 2999 3001 3002 3003 3004 3004 3004 3002 3000 2998 2995 2993 2990 2988 2986 2984 2981 2978 2975 2973 2970 2968 2965 2964 2962 2960 2958 2956 2955 2953 2951 2949 2947 2945
2969 2972 2975 2978 2982 2984 2987 2990 2992 2994 2996 2997 2998 2998 2998 2996 2994 2993 2990 2988 2986 2983 2981 2979 2976 2973 2971 2968 2966 2964 2962 2960 2958 2957 2955 2954 2953 2952 2951 2949 2948 2946 2943
2964 2967 2970 2973 2976 2978 2982 2986 2988 2989 2991 2992 2992 2991 2990 2989 2987 2985 2983 2981 2979 2976 2973 2970 2968 2965 2963 2960 2958 2956 2955 2954 2953 2952 2951 2950 2950 2949 2948 2947 2946 2944 2942